Location: Larrial
(48.2758°N, 4.5331°W)
Time: 23:44:51
(UTC+00:00)

ERBS - Pass Details

Date: 09 April 2020
Orbit: 410 x 426 km, 57.0° (Epoch: 24 May)

Event Time Altitude Azimuth Distance (km) Brightness Sun altitude
Rises 20:07:39 0° 307° (NW) 2,392 8.0 -11.3°
Reaches altitude 10° 20:09:48 10° 314° (NW) 1,525 6.4 -11.6°
Maximum altitude 20:13:06 45° 28° (NNE) 595 3.0 -12.1°
Enters shadow 20:15:10 20° 95° (E) 1,063 3.7 -12.4°
